Time	UTC	INS:ins_zd	INS:ins_yd	INS:ins_xd	ROTORCRAFT_FP:psi	ROTORCRAFT_FP:theta	ROTORCRAFT_FP:phi
9.664	19:52:49.025	-225828	0	0	1945	-60	40
9.914	19:52:49.275	-201292	0	0	1944	-59	39
10.164	19:52:49.525	-162325	0	0	1945	-59	39
10.414	19:52:49.775	-100314	0	0	1945	-58	39
10.664	19:52:50.025	-108809	0	0	1945	-57	39
10.914	19:52:50.275	-153475	0	0	1945	-57	39
11.164	19:52:50.525	-91981	0	0	1946	-56	38
11.414	19:52:50.775	-78493	0	0	1947	-55	38
11.664	19:52:51.025	-36062	0	0	1948	-54	38
11.914	19:52:51.275	10351	0	0	1949	-54	38
12.164	19:52:51.525	47661	0	0	1949	-53	38
12.414	19:52:51.775	61465	0	0	1951	-53	38
12.664	19:52:52.025	55937	0	0	1952	-52	38
12.914	19:52:52.275	50936	0	0	1953	-52	38
13.164	19:52:52.525	44793	0	0	1954	-51	38
13.414	19:52:52.775	22480	0	0	1954	-50	38
13.664	19:52:53.025	-2171	0	0	1956	-49	38
13.914	19:52:53.275	-1851	0	0	1958	-49	38
14.164	19:52:53.525	-10734	0	0	1959	-48	38
14.414	19:52:53.775	29327	0	0	1961	-47	38
14.664	19:52:54.025	25574	0	0	1961	-47	38
14.914	19:52:54.275	21616	0	0	1963	-46	38
15.164	19:52:54.525	-8054	0	0	1964	-46	38
15.414	19:52:54.775	-2862	0	0	1965	-45	38
15.664	19:52:55.025	-17086	0	0	1967	-45	38
15.914	19:52:55.275	-65838	0	0	1969	-45	38
16.164	19:52:55.525	-90460	0	0	1971	-44	38
16.414	19:52:55.775	-61459	0	0	1972	-44	38
16.664	19:52:56.025	-77185	0	0	1973	-43	38
16.914	19:52:56.275	-90292	0	0	1974	-43	38
17.164	19:52:56.525	-69051	0	0	1975	-43	38
17.414	19:52:56.775	-56281	0	0	1976	-42	38
17.664	19:52:57.025	-47736	0	0	1977	-42	39
17.914	19:52:57.275	6068	0	0	1978	-41	39
18.164	19:52:57.525	6068	0	0	1978	-41	40
18.414	19:52:57.775	29314	0	0	1978	-40	40
18.664	19:52:58.025	17672	0	0	1979	-40	40
18.914	19:52:58.275	21586	0	0	1979	-40	40
19.164	19:52:58.525	-20068	0	0	1979	-39	40
19.414	19:52:58.775	-33530	0	0	1980	-39	40
19.664	19:52:59.025	-55458	0	0	1981	-38	41
19.914	19:52:59.275	-53211	0	0	1981	-38	41
20.164	19:52:59.525	-39693	0	0	1981	-37	42
20.414	19:52:59.775	-11901	0	0	1982	-37	42
20.664	19:53:0.025	-20705	0	0	1983	-37	43
20.914	19:53:0.275	-42397	0	0	1983	-37	43
21.164	19:53:0.525	-30629	0	0	1984	-36	44
21.414	19:53:0.775	-59472	0	0	1985	-36	44
21.664	19:53:1.025	-94675	0	0	1986	-36	44
21.914	19:53:1.275	-90880	0	0	1987	-35	45
22.164	19:53:1.525	-94841	0	0	1987	-35	45
22.414	19:53:1.775	-100075	0	0	1988	-34	45
22.664	19:53:2.025	-96327	0	0	1988	-34	46
22.914	19:53:2.275	-106568	0	0	1991	-34	46
23.164	19:53:2.525	-107611	0	0	1993	-34	47
23.414	19:53:2.775	-98736	0	0	1993	-33	46
23.664	19:53:3.025	-101322	0	0	1994	-33	46
23.914	19:53:3.275	-116157	0	0	1996	-32	47
24.164	19:53:3.525	-105390	0	0	1997	-32	47
24.414	19:53:3.775	-74396	0	0	1998	-32	48
24.664	19:53:4.025	-58660	0	0	1999	-32	48
24.914	19:53:4.275	-77941	0	0	2000	-32	48
25.164	19:53:4.525	-69445	0	0	2001	-31	49
25.414	19:53:4.775	-39984	0	0	2001	-31	49
25.664	19:53:5.025	-52800	0	0	2002	-31	50
25.914	19:53:5.275	-54242	0	0	2002	-31	50
26.164	19:53:5.525	-45936	0	0	2004	-30	51
26.414	19:53:5.775	-16067	0	0	2005	-31	52
26.664	19:53:6.025	7971	0	0	2006	-31	52
26.914	19:53:6.275	-25490	0	0	2007	-31	52
27.164	19:53:6.525	-11477	0	0	2009	-31	52
27.414	19:53:6.775	-16861	0	0	2010	-31	52
27.664	19:53:7.025	-37285	0	0	2011	-31	53
27.914	19:53:7.275	-46410	0	0	2014	-31	53
28.164	19:53:7.525	-40528	0	0	2016	-31	53
28.414	19:53:7.775	-23100	0	0	2017	-31	53
28.664	19:53:8.025	-35377	0	0	2018	-31	53
28.914	19:53:8.275	-12757	0	0	2018	-31	53
29.164	19:53:8.525	-12757	0	0	2019	-31	53
29.414	19:53:8.775	492	0	0	2019	-31	53
29.664	19:53:9.025	-2956	-10485	31457	2020	-32	53
29.914	19:53:9.275	-13042	-5242	-36700	2021	-32	53
30.164	19:53:9.525	-31779	15728	15728	2021	-32	53
30.414	19:53:9.775	-55431	15728	-52428	2021	-32	53
30.664	19:53:10.025	-48986	-26214	125829	2024	-32	53
30.914	19:53:10.275	-68301	31457	5242	2025	-31	53
31.164	19:53:10.525	-64360	31457	-26214	2025	-31	53
31.414	19:53:10.775	-74351	-5242	-52428	2026	-32	53
31.664	19:53:11.025	-64588	-5242	-99614	2027	-32	53
31.914	19:53:11.275	-82859	-20971	-36700	2027	-32	53
32.164	19:53:11.525	-66510	-15728	-104857	2028	-31	53
32.414	19:53:11.775	-46313	-26214	-41943	2028	-31	53
32.664	19:53:12.025	-57235	-15728	-83886	2029	-32	53
32.914	19:53:12.275	-60969	-20971	36700	2030	-32	53
33.164	19:53:12.525	-61189	5242	-26214	2030	-31	54
33.414	19:53:12.775	-46797	20971	52428	2030	-31	54
33.664	19:53:13.025	-37682	-5242	5242	2031	-31	54
33.914	19:53:13.275	-58123	20971	-47185	2033	-31	55
34.164	19:53:13.525	-37011	10485	47185	2033	-31	55
34.414	19:53:13.775	-47185	-5242	99614	2035	-31	55
34.664	19:53:14.025	-45548	0	-41943	2037	-31	56
34.914	19:53:14.275	-34939	-10485	-5242	2038	-31	55
35.164	19:53:14.525	-48798	-10485	41943	2040	-30	56
35.414	19:53:14.775	-26401	-36700	-31457	2040	-30	56
35.664	19:53:15.025	-13344	10485	-131071	2041	-30	56
35.914	19:53:15.275	-19448	-20971	-152043	2043	-30	56
36.164	19:53:15.525	-11660	-26214	20971	2044	-30	57
36.414	19:53:15.775	-11957	-5242	-94371	2045	-30	57
36.664	19:53:16.025	-12731	-41943	0	2046	-30	57
36.914	19:53:16.275	-22494	10485	36700	2047	-30	58
37.164	19:53:16.525	-31098	15728	26214	2047	-30	58
37.414	19:53:16.775	-15968	-36700	-68157	2047	-30	58
37.664	19:53:17.025	-7782	-20971	68157	2047	-30	58
37.914	19:53:17.275	-761	-10485	-68157	2047	-30	59
38.164	19:53:17.525	-8070	15728	15728	2047	-30	59
38.414	19:53:17.775	-14628	0	-152043	2048	-30	60
38.664	19:53:18.025	-6611	0	15728	2049	-30	60
38.914	19:53:18.275	-14110	-26214	188743	2050	-30	60
39.164	19:53:18.525	14359	-5242	10485	2050	-30	61
39.414	19:53:18.775	-1984	-10485	-47185	2051	-30	61
39.664	19:53:19.025	-1984	-10485	-47185	2052	-30	62
39.914	19:53:19.275	5330	-5242	52428	2052	-30	62
40.164	19:53:19.525	3293	-15728	-10485	2053	-30	63
40.414	19:53:19.775	5719	-15728	-26214	2054	-30	63
40.664	19:53:20.025	-9159	0	62914	2056	-30	62
40.914	19:53:20.275	-33504	-31457	-78643	2057	-30	62
41.164	19:53:20.525	-33335	-57671	-346029	2058	-30	63
41.414	19:53:20.775	-26608	-10485	-20971	2059	-30	63
41.664	19:53:21.025	-31412	-15728	-57671	2060	-30	63
41.914	19:53:21.275	-12619	-10485	-57671	2061	-30	62
42.164	19:53:21.525	-23206	-26214	-73400	2063	-31	62
42.414	19:53:21.775	-38992	10485	68157	2064	-31	62
42.664	19:53:22.025	-43193	-26214	-68157	2067	-31	62
42.914	19:53:22.275	-39609	0	47185	2068	-31	63
43.164	19:53:22.525	-45685	0	73400	2069	-31	63
43.414	19:53:22.775	-40209	-5242	-15728	2072	-32	63
43.664	19:53:23.025	-58870	-5242	-31457	2073	-32	63
43.914	19:53:23.275	-62649	-5242	-26214	2076	-32	63
44.164	19:53:23.525	-66819	-10485	57671	2079	-32	62
44.414	19:53:23.775	-40683	5242	5242	2081	-33	63
44.664	19:53:24.025	-46772	-10485	52428	2083	-33	63
44.914	19:53:24.275	-52563	-5242	0	2085	-33	63
45.164	19:53:24.525	-52241	5242	41943	2088	-33	63
45.414	19:53:24.775	-42315	10485	-31457	2091	-34	63
45.664	19:53:25.025	-28317	5242	83886	2094	-34	63
45.914	19:53:25.275	-3614	41943	47185	2096	-34	64
46.164	19:53:25.525	-27822	0	15728	2098	-34	64
46.414	19:53:25.775	-16417	0	-20971	2099	-34	64
46.664	19:53:26.025	-25441	-10485	-31457	2102	-35	64
46.914	19:53:26.275	-37299	0	36700	2104	-35	64
47.164	19:53:26.525	-54322	-20971	-47185	2108	-35	64
47.414	19:53:26.775	-27474	-5242	0	2109	-35	64
47.664	19:53:27.025	-42680	-36700	-31457	2112	-35	64
47.914	19:53:27.275	-71520	-10485	-15728	2113	-35	64
48.164	19:53:27.525	-39206	-10485	15728	2113	-35	65
48.414	19:53:27.775	-48990	0	-26214	2115	-36	65
48.664	19:53:28.025	-52088	-10485	5242	2116	-36	64
48.914	19:53:28.275	-67770	-5242	-36700	2117	-36	65
49.164	19:53:28.525	-82392	-15728	5242	2119	-37	65
49.414	19:53:28.775	-85222	-15728	-20971	2122	-37	65
49.664	19:53:29.025	-77262	0	10485	2123	-37	65
49.914	19:53:29.275	-77262	0	10485	2124	-37	64
50.164	19:53:29.525	-98896	-5242	20971	2125	-38	64
50.414	19:53:29.775	-98896	-5242	20971	2128	-38	64
50.664	19:53:30.025	-114583	15728	-15728	2130	-38	63
50.914	19:53:30.275	-118318	-31457	-26214	2132	-38	63
51.164	19:53:30.525	-94774	0	15728	2136	-39	64
51.414	19:53:30.775	-115145	-10485	15728	2137	-39	63
51.664	19:53:31.025	-100886	-20971	-15728	2140	-40	63
51.914	19:53:31.275	-112920	0	15728	2141	-40	63
52.164	19:53:31.525	-115526	0	-15728	2143	-40	62
52.414	19:53:31.775	-118836	15728	-36700	2145	-41	62
52.664	19:53:32.025	-144921	-15728	-10485	2146	-41	62
52.914	19:53:32.275	-151139	5242	-5242	2148	-41	61
53.164	19:53:32.525	-156168	-5242	-20971	2149	-42	61
53.414	19:53:32.775	-131995	-5242	10485	2150	-42	61
53.664	19:53:33.025	-118415	-5242	-10485	2150	-42	61
53.914	19:53:33.275	-124023	15728	26214	2152	-43	61
54.164	19:53:33.525	-131682	-20971	-15728	2153	-43	60
54.414	19:53:33.775	-148596	-5242	-10485	2155	-43	60
54.664	19:53:34.025	-135199	-15728	20971	2155	-43	60
54.914	19:53:34.275	-138487	-5242	-20971	2157	-43	60
55.164	19:53:34.525	-143663	-5242	5242	2157	-43	60
55.414	19:53:34.775	-131611	5242	5242	2159	-43	60
55.664	19:53:35.025	-140826	0	0	2161	-44	60
55.914	19:53:35.275	-170218	10485	10485	2162	-44	60
56.164	19:53:35.525	-179725	-5242	0	2163	-44	59
56.414	19:53:35.775	-178692	0	5242	2164	-44	59
56.664	19:53:36.025	-195766	-5242	-10485	2166	-44	59
56.914	19:53:36.275	-210847	-26214	5242	2167	-45	59
57.164	19:53:36.525	-205065	-15728	10485	2168	-45	59
57.414	19:53:36.775	-222246	-5242	0	2168	-46	59
57.664	19:53:37.025	-219414	0	10485	2169	-46	59
57.914	19:53:37.275	-203241	-10485	-10485	2170	-46	60
58.164	19:53:37.525	-201462	10485	5242	2172	-47	59
58.414	19:53:37.775	-215911	-10485	0	2174	-47	60
58.664	19:53:38.025	-208087	10485	-20971	2175	-48	59
58.914	19:53:38.275	-211317	5242	-31457	2177	-48	60
59.164	19:53:38.525	-193133	-36700	15728	2178	-49	59
59.414	19:53:38.775	-186319	-5242	10485	2179	-50	60
59.664	19:53:39.025	-179532	-5242	-41943	2181	-50	60
59.914	19:53:39.275	-186200	5242	5242	2183	-51	60
60.164	19:53:39.525	-163010	5242	57671	2184	-52	60
60.414	19:53:39.775	-163010	5242	57671	2185	-52	60
60.664	19:53:40.025	-168030	-5242	31457	2187	-52	61
60.914	19:53:40.275	-181844	10485	20971	2189	-52	61
61.164	19:53:40.525	-201192	0	26214	2189	-52	61
61.414	19:53:40.775	-201192	0	26214	2191	-53	61
61.664	19:53:41.025	-199175	0	-36700	2193	-53	61
61.914	19:53:41.275	-187868	-10485	5242	2195	-53	61
62.164	19:53:41.525	-176064	10485	10485	2196	-53	60
62.414	19:53:41.775	-195285	-10485	-31457	2196	-53	60
62.664	19:53:42.025	-189681	0	0	2197	-53	60
62.914	19:53:42.275	-193140	-10485	-5242	2199	-53	60
63.164	19:53:42.525	-202135	-10485	10485	2200	-53	60
63.414	19:53:42.775	-213392	0	-5242	2201	-54	60
63.664	19:53:43.025	-211425	-20971	-10485	2202	-54	60
63.914	19:53:43.275	-193681	-20971	5242	2203	-54	60
64.164	19:53:43.525	-176221	10485	0	2204	-54	60
64.414	19:53:43.775	-180165	-20971	-10485	2204	-54	60
64.664	19:53:44.025	-161676	5242	-5242	2205	-54	60
64.914	19:53:44.275	-158401	5242	5242	2206	-55	60
65.164	19:53:44.525	-146689	5242	0	2208	-55	60
65.414	19:53:44.775	-117864	-15728	15728	2209	-55	60
65.664	19:53:45.025	-121214	-10485	31457	2212	-55	60
65.914	19:53:45.275	-123438	5242	31457	2213	-55	60
66.164	19:53:45.525	-100908	0	-26214	2215	-55	59
66.414	19:53:45.775	-120388	5242	5242	2217	-56	59
66.664	19:53:46.025	-113633	-15728	-5242	2218	-56	59
66.914	19:53:46.275	-116300	-5242	0	2218	-56	59
67.164	19:53:46.525	-97318	-15728	-26214	2220	-56	59
67.414	19:53:46.775	-108772	-10485	-10485	2220	-56	59
67.664	19:53:47.025	-106208	-20971	5242	2220	-57	60
67.914	19:53:47.275	-105056	-15728	-20971	2221	-57	60
68.164	19:53:47.525	-103320	-5242	-5242	2222	-57	60
68.414	19:53:47.775	-90595	15728	-10485	2223	-57	60
68.664	19:53:48.025	-97464	-10485	-10485	2223	-57	60
68.914	19:53:48.275	-87999	0	5242	2225	-57	60
69.164	19:53:48.525	-80286	0	31457	2226	-57	60
69.414	19:53:48.775	-71991	0	-10485	2227	-57	60
69.664	19:53:49.025	-68004	5242	0	2228	-57	60
69.914	19:53:49.275	-54772	-10485	0	2228	-57	60
70.164	19:53:49.525	-69396	0	26214	2227	-57	60
70.414	19:53:49.775	-70545	0	0	2227	-57	60
70.664	19:53:50.025	-62801	-5242	-10485	2228	-57	60
70.914	19:53:50.275	-64854	-5242	-5242	2228	-57	60
71.164	19:53:50.525	-43979	0	-26214	2229	-57	60
71.414	19:53:50.775	-43979	0	-26214	2230	-57	60
71.664	19:53:51.025	-38899	5242	10485	2230	-57	60
71.914	19:53:51.275	-44279	5242	-41943	2231	-57	60
72.164	19:53:51.525	-10625	-10485	10485	2232	-57	60
72.414	19:53:51.775	3412	-31457	-5242	2233	-56	60
72.664	19:53:52.025	2163	-5242	5242	2234	-57	60
72.914	19:53:52.275	4279	-15728	10485	2235	-56	61
73.164	19:53:52.525	-5343	-10485	0	2236	-56	61
73.414	19:53:52.775	-18355	-5242	10485	2236	-56	61
73.664	19:53:53.025	-6667	0	-5242	2237	-56	61
73.914	19:53:53.275	-22609	-5242	-26214	2238	-56	61
74.164	19:53:53.525	-9074	5242	-5242	2238	-55	62
74.414	19:53:53.775	-10279	-20971	0	2240	-55	62
74.664	19:53:54.025	91	-20971	10485	2241	-55	62
74.914	19:53:54.275	-8378	-10485	0	2242	-55	62
75.164	19:53:54.525	7316	-10485	10485	2244	-55	62
75.414	19:53:54.775	10813	-20971	5242	2245	-55	63
75.664	19:53:55.025	5776	0	0	2246	-55	63
75.914	19:53:55.275	5222	-10485	5242	2247	-54	63
76.164	19:53:55.525	15101	-10485	5242	2248	-54	63
76.414	19:53:55.775	14413	-15728	5242	2249	-54	63
76.664	19:53:56.025	4374	0	-15728	2249	-54	63
76.914	19:53:56.275	9038	10485	-10485	2250	-54	63
77.164	19:53:56.525	8104	-10485	10485	2251	-54	63
77.414	19:53:56.775	19767	5242	-5242	2253	-54	63
77.664	19:53:57.025	22661	0	10485	2254	-53	63
77.914	19:53:57.275	49334	-15728	-10485	2256	-53	63
78.164	19:53:57.525	51955	-5242	0	2258	-53	64
78.414	19:53:57.775	45718	0	0	2260	-53	64
78.664	19:53:58.025	55886	-5242	-15728	2261	-53	64
78.914	19:53:58.275	35688	-10485	-20971	2261	-53	64
79.164	19:53:58.525	23337	-5242	5242	2262	-53	64
79.414	19:53:58.775	42165	-5242	-15728	2265	-53	64
79.664	19:53:59.025	20399	-26214	5242	2266	-53	64
79.914	19:53:59.275	8415	-20971	5242	2266	-53	63
80.164	19:53:59.525	-2141	-20971	-5242	2267	-53	63
80.414	19:53:59.775	-208	-20971	5242	2268	-53	63
80.664	19:54:0.025	-2096	-5242	5242	2269	-53	63
80.914	19:54:0.275	-15089	10485	-20971	2270	-53	63
81.164	19:54:0.525	2051	-5242	5242	2271	-53	63
81.414	19:54:0.775	5593	-10485	5242	2272	-53	63
81.664	19:54:1.025	11440	5242	10485	2274	-53	64
81.914	19:54:1.275	5044	-5242	10485	2275	-53	64
82.164	19:54:1.525	9797	-5242	-10485	2276	-53	63
82.414	19:54:1.775	-2201	-5242	0	2276	-53	63
82.664	19:54:2.025	-2201	-5242	0	2278	-53	62
82.914	19:54:2.275	13125	-5242	0	2280	-53	62
83.164	19:54:2.525	-923	-26214	-5242	2281	-53	62
83.414	19:54:2.775	-5481	-20971	-5242	2282	-53	62
83.664	19:54:3.025	10816	-36700	15728	2283	-53	62
83.914	19:54:3.275	15932	-20971	20971	2284	-53	62
84.164	19:54:3.525	-610	-5242	-5242	2284	-53	62
84.414	19:54:3.775	1849	0	26214	2284	-53	62
84.664	19:54:4.025	-1767	-5242	5242	2284	-53	62
84.914	19:54:4.275	-12573	-26214	0	2284	-54	61
85.164	19:54:4.525	-47850	10485	-15728	2285	-54	61
85.414	19:54:4.775	-61472	10485	0	2286	-54	61
85.664	19:54:5.025	-9604	-41943	10485	2285	-54	61
85.914	19:54:5.275	-13304	-5242	-10485	2286	-54	61
86.164	19:54:5.525	-22127	-10485	5242	2286	-54	61
86.414	19:54:5.775	-29361	26214	0	2286	-55	61
86.664	19:54:6.025	-32761	10485	-15728	2288	-55	61
86.914	19:54:6.275	-67079	-10485	10485	2289	-55	61
87.164	19:54:6.525	-60413	-10485	-15728	2291	-55	60
87.414	19:54:6.775	-69965	5242	-5242	2292	-56	60
87.664	19:54:7.025	-78503	5242	-10485	2293	-56	59
87.914	19:54:7.275	-88483	-26214	-26214	2293	-56	59
88.164	19:54:7.525	-77066	5242	-10485	2292	-57	59
88.414	19:54:7.775	-84916	-5242	5242	2293	-57	59
88.664	19:54:8.025	-84561	-5242	0	2294	-58	59
88.914	19:54:8.275	-83444	0	-5242	2294	-58	59
89.164	19:54:8.525	-73444	-26214	5242	2295	-58	58
89.414	19:54:8.775	-93831	5242	-10485	2296	-59	58
89.664	19:54:9.025	-138160	10485	-5242	2297	-60	58
89.914	19:54:9.275	-142725	0	-15728	2299	-60	57
90.164	19:54:9.525	-135393	0	10485	2300	-61	57
90.414	19:54:9.775	-125987	15728	-20971	2302	-61	57
90.664	19:54:10.025	-116887	0	10485	2302	-62	56
90.914	19:54:10.275	-125639	0	-5242	2303	-62	56
91.164	19:54:10.525	-130686	-10485	-5242	2303	-62	56
91.414	19:54:10.775	-156933	-15728	0	2303	-63	56
91.664	19:54:11.025	-173704	0	36700	2303	-64	56
91.914	19:54:11.275	-174408	-5242	26214	2304	-64	56
92.164	19:54:11.525	-161194	10485	0	2304	-64	56
92.414	19:54:11.775	-150144	-10485	5242	2306	-65	56
92.664	19:54:12.025	-150006	20971	-31457	2307	-66	55
92.914	19:54:12.275	-156693	-10485	-26214	2307	-66	55
93.164	19:54:12.525	-156693	-10485	-26214	2308	-66	55
93.414	19:54:12.775	-159059	5242	10485	2308	-67	55
93.664	19:54:13.025	-145032	5242	-5242	2310	-67	55
93.914	19:54:13.275	-141495	5242	-41943	2311	-68	55
94.164	19:54:13.525	-123652	-10485	0	2311	-68	55
94.414	19:54:13.775	-138266	-15728	26214	2312	-68	54
94.664	19:54:14.025	-123525	-10485	15728	2312	-68	54
94.914	19:54:14.275	-122437	-20971	5242	2312	-69	53
95.164	19:54:14.525	-125747	-5242	-10485	2313	-69	53
95.414	19:54:14.775	-122594	10485	-10485	2314	-69	53
95.664	19:54:15.025	-101686	-20971	-26214	2315	-70	53
95.914	19:54:15.275	-90356	-15728	0	2316	-70	53
96.164	19:54:15.525	-92987	-15728	-15728	2317	-70	53
96.414	19:54:15.775	-91795	-20971	10485	2317	-71	52
96.664	19:54:16.025	-79323	20971	-26214	2318	-71	52
96.914	19:54:16.275	-83784	10485	-20971	2320	-71	52
97.164	19:54:16.525	-69644	-15728	20971	2321	-71	52
97.414	19:54:16.775	-93838	5242	-10485	2321	-71	52
97.664	19:54:17.025	-72929	0	26214	2323	-71	52
97.914	19:54:17.275	-49857	5242	15728	2323	-72	51
98.164	19:54:17.525	-75944	-31457	-5242	2325	-72	51
98.414	19:54:17.775	-79181	-36700	-10485	2325	-72	51
98.664	19:54:18.025	-86244	-15728	-5242	2326	-72	51
98.914	19:54:18.275	-81128	-10485	0	2325	-73	51
99.164	19:54:18.525	-78700	-10485	-26214	2325	-73	51
99.414	19:54:18.775	-65036	-5242	-15728	2325	-73	51
99.664	19:54:19.025	-74371	-15728	-31457	2326	-73	51
99.914	19:54:19.275	-88919	15728	31457	2326	-73	51
100.164	19:54:19.525	-70455	-15728	10485	2326	-74	51
100.414	19:54:19.775	-75753	-5242	-15728	2327	-74	51
100.664	19:54:20.025	-54508	-20971	-20971	2328	-74	51
100.914	19:54:20.275	-67535	0	-20971	2328	-74	50
101.164	19:54:20.525	-46077	0	5242	2328	-74	51
101.414	19:54:20.775	-47181	10485	-36700	2328	-74	51
101.664	19:54:21.025	-49332	-10485	47185	2328	-75	51
101.914	19:54:21.275	-35160	5242	5242	2329	-75	50
102.164	19:54:21.525	-35397	-5242	20971	2329	-75	50
102.414	19:54:21.775	-23388	0	-31457	2329	-75	50
102.664	19:54:22.025	-15399	5242	20971	2329	-75	50
102.914	19:54:22.275	-20910	-20971	-52428	2329	-75	50
103.164	19:54:22.525	-3477	-5242	-41943	2328	-75	50
103.414	19:54:22.775	-3477	-5242	-41943	2328	-75	50
103.664	19:54:23.025	17316	-5242	-5242	2328	-75	50
103.914	19:54:23.275	2816	-5242	-15728	2329	-75	50
104.164	19:54:23.525	-3977	-5242	-15728	2329	-75	50
104.414	19:54:23.775	-810	0	-31457	2331	-75	50
104.664	19:54:24.025	-4436	-10485	5242	2332	-75	50
104.914	19:54:24.275	-2499	0	0	2331	-75	51
105.164	19:54:24.525	12853	0	5242	2331	-74	51
105.414	19:54:24.775	13459	-15728	-20971	2331	-75	51
105.664	19:54:25.025	13133	-36700	-26214	2331	-75	51
105.914	19:54:25.275	15441	5242	-10485	2330	-75	51
106.164	19:54:25.525	19708	-10485	0	2330	-75	51
106.414	19:54:25.775	9506	15728	0	2329	-74	51
106.664	19:54:26.025	23016	-15728	-31457	2330	-75	52
106.914	19:54:26.275	27820	-10485	-31457	2329	-75	52
107.164	19:54:26.525	25345	10485	0	2330	-75	52
107.414	19:54:26.775	14947	-31457	10485	2330	-75	52
107.664	19:54:27.025	39023	-5242	57671	2330	-75	52
107.914	19:54:27.275	41099	5242	-15728	2331	-74	52
108.164	19:54:27.525	56996	-5242	0	2332	-74	52
108.414	19:54:27.775	54912	0	-20971	2333	-74	52
108.664	19:54:28.025	51404	15728	0	2332	-74	52
108.914	19:54:28.275	74968	-5242	26214	2332	-74	52
109.164	19:54:28.525	64537	-5242	-20971	2333	-74	52
109.414	19:54:28.775	66643	-20971	-26214	2333	-74	52
109.664	19:54:29.025	72446	-15728	-5242	2333	-74	52
109.914	19:54:29.275	84428	10485	-26214	2335	-74	52
110.164	19:54:29.525	82171	26214	-26214	2336	-73	52
110.414	19:54:29.775	73660	-5242	15728	2337	-73	53
110.664	19:54:30.025	76441	-31457	-26214	2338	-73	53
110.914	19:54:30.275	77810	0	10485	2339	-73	53
111.164	19:54:30.525	96676	0	36700	2340	-73	53
111.414	19:54:30.775	93430	-20971	0	2342	-72	53
111.664	19:54:31.025	99721	0	0	2343	-72	53
111.914	19:54:31.275	97977	0	-31457	2344	-71	53
112.164	19:54:31.525	86360	-26214	-10485	2346	-71	53
112.414	19:54:31.775	87999	-20971	-26214	2347	-70	53
112.664	19:54:32.025	82215	10485	-41943	2348	-70	53
112.914	19:54:32.275	86110	5242	-26214	2349	-70	53
113.164	19:54:32.525	89412	15728	5242	2350	-70	53
113.414	19:54:32.775	101323	10485	-5242	2350	-70	53
113.664	19:54:33.025	101323	10485	-5242	2351	-70	52
113.914	19:54:33.275	91431	15728	0	2351	-70	53
114.164	19:54:33.525	75833	20971	0	2352	-69	52
114.414	19:54:33.775	79605	-20971	10485	2353	-69	52
114.664	19:54:34.025	57923	0	-47185	2353	-69	52
114.914	19:54:34.275	46960	-5242	-36700	2353	-69	52
115.164	19:54:34.525	45330	-15728	-36700	2352	-69	52
115.414	19:54:34.775	43056	-10485	-57671	2353	-69	52
115.664	19:54:35.025	42498	-26214	-15728	2355	-69	52
115.914	19:54:35.275	35878	0	-36700	2357	-69	52
116.164	19:54:35.525	28410	5242	-15728	2357	-69	52
116.414	19:54:35.775	9087	-15728	20971	2357	-69	52
116.664	19:54:36.025	4564	10485	-5242	2359	-69	52
116.914	19:54:36.275	4777	-15728	20971	2359	-69	51
117.164	19:54:36.525	1423	15728	31457	2360	-69	51
117.414	19:54:36.775	11995	-31457	20971	2360	-69	51
117.664	19:54:37.025	-2453	-5242	-10485	2360	-69	51
117.914	19:54:37.275	-9860	-5242	0	2360	-69	51
118.164	19:54:37.525	-17394	-5242	20971	2360	-69	52
118.414	19:54:37.775	-25817	-15728	-26214	2361	-69	51
118.664	19:54:38.025	-41572	0	26214	2362	-71	43
118.914	19:54:38.275	-58067	-10485	0	2363	-78	14
119.164	19:54:38.525	-57515	15728	5242	2366	-96	-60
119.414	19:54:38.775	-83278	-10485	-31457	2355	-100	-196
119.664	19:54:39.025	-123500	-10485	-41943	2216	-75	-299
119.914	19:54:39.275	-167016	-15728	-26214	2496	-348	-999
120.164	19:54:39.525	-224101	-209715	-26214	1725	-634	-1343
120.414	19:54:39.775	-311125	-487587	283115	6321	-106	-3939
120.664	19:54:40.025	-370834	-576716	450887	-8059	2412	-6593
120.914	19:54:40.275	28120	-408944	251658	-4559	239	-151
121.164	19:54:40.525	163073	-52428	361758	-3577	184	260
121.414	19:54:40.775	123596	89128	209715	-3499	113	-328
121.664	19:54:41.025	102750	10485	-5242	-3504	103	-220
121.914	19:54:41.275	103523	-5242	20971	-3504	99	-198
122.164	19:54:41.525	123408	0	31457	-3504	92	-181
122.414	19:54:41.775	126632	-10485	-10485	-3502	88	-176
122.664	19:54:42.025	143727	-10485	0	-3501	80	-171
122.914	19:54:42.275	143392	10485	5242	-3501	76	-167
123.164	19:54:42.525	142650	15728	-5242	-3500	69	-162
123.414	19:54:42.775	114638	0	-15728	-3500	65	-159
123.664	19:54:43.025	122309	5242	-15728	-3499	58	-154
123.914	19:54:43.275	124838	10485	26214	-3499	53	-150
124.164	19:54:43.525	132842	15728	0	-3498	49	-147
124.414	19:54:43.775	136255	0	-10485	-3497	42	-142
124.664	19:54:44.025	143116	5242	-5242	-3498	38	-138
124.914	19:54:44.275	143116	5242	-5242	-3499	32	-133
125.164	19:54:44.525	164176	0	-10485	-3500	28	-130
125.414	19:54:44.775	170723	-20971	-15728	-3501	22	-125
125.664	19:54:45.025	178406	-10485	-5242	-3501	19	-122
125.914	19:54:45.275	180629	-15728	-15728	-3502	13	-118
126.164	19:54:45.525	183886	-15728	0	-3503	9	-115
126.414	19:54:45.775	198032	10485	20971	-3504	4	-111
126.664	19:54:46.025	206670	0	10485	-3506	0	-108
126.914	19:54:46.275	216510	-15728	-10485	-3507	-3	-105
127.164	19:54:46.525	209633	-5242	26214	-3508	-8	-101
127.414	19:54:46.775	208754	-89128	-99614	-3508	-11	-98
127.664	19:54:47.025	219795	-52428	-120586	-3508	-16	-94
127.914	19:54:47.275	220781	5242	31457	-3508	-20	-91
128.164	19:54:47.525	229260	5242	36700	-3507	-24	-88
128.414	19:54:47.775	230905	0	0	-3506	-27	-85
128.664	19:54:48.025	247798	-5242	-15728	-3506	-32	-82
128.914	19:54:48.275	230188	-15728	-15728	-3506	-35	-79
129.164	19:54:48.525	251505	68157	120586	-3507	-47	-192
129.414	19:54:48.775	259204	115343	-125829	-3315	-181	-218
129.664	19:54:49.025	-37990	-41943	141557	-1268	-156	288
129.914	19:54:49.275	-36774	-89128	335544	1881	-898	1515
130.164	19:54:49.525	65594	-57671	178257	1443	-352	2946